Theta_e
350 350 351 349 349 350 351 351 349 352 350 349 349 347 345 344 344 342 339 336 335 335 334 330 333 333 333 335 338 339 340 340 339 340 340 341 341 335 336 333 333 333 335
350 350 350 348 350 349 351 351 351 350 348 351 350 349 347 344 339 338 335 338 336 335 327 328 329 330 328 326 325 325 330 336 339 340 341 340 339 339 336 333 332 330 334
349 349 351 349 351 351 352 349 348 350 350 349 352 350 345 343 340 340 341 340 334 334 332 332 329 329 329 327 325 323 323 323 328 333 336 336 337 336 336 334 332 331 332
345 350 351 353 353 352 352 351 348 347 350 349 347 347 342 342 343 343 340 338 336 335 331 332 326 328 327 328 326 325 323 321 319 322 330 331 332 333 336 335 333 331 331
350 351 352 353 351 354 353 349 348 347 349 348 346 349 345 345 345 342 340 338 337 333 332 331 328 327 328 324 325 325 323 322 321 318 319 326 330 332 331 330 329 325 326
345 353 351 353 355 355 354 349 347 350 348 349 344 345 346 347 345 345 340 339 337 335 332 332 330 328 325 325 325 324 324 323 321 320 319 318 325 328 331 332 331 327 326
348 354 349 347 355 355 351 349 347 349 347 344 339 338 349 347 345 341 338 337 337 336 335 334 331 329 326 326 324 323 323 323 321 319 319 319 321 326 328 331 332 331 329
347 352 353 345 355 356 349 347 345 347 344 340 337 339 349 343 337 338 338 337 336 336 335 335 332 329 328 327 325 323 324 322 322 318 319 319 317 326 326 328 332 331 331
352 353 354 348 353 353 349 348 348 341 339 338 336 332 336 335 338 339 338 337 336 335 334 336 332 331 329 328 325 324 323 321 319 318 317 317 317 322 328 329 330 332 331
350 350 355 351 354 354 350 349 351 347 346 328 333 333 333 332 336 336 336 327 329 335 336 334 332 331 330 328 325 324 322 320 319 317 317 318 324 319 326 330 330 333 333
351 352 355 351 352 353 353 348 347 348 348 334 322 327 325 325 321 320 321 320 321 329 336 333 332 331 330 327 325 324 322 318 317 317 319 319 323 321 324 329 331 332 332
351 353 355 352 352 353 354 355 349 348 349 337 319 316 317 319 318 319 320 321 327 332 337 332 332 330 328 326 323 322 320 318 317 317 319 316 322 323 326 327 330 331 330
351 352 353 352 354 353 355 355 352 348 349 345 341 324 317 320 319 319 320 323 326 332 333 330 329 328 326 323 323 321 319 318 317 317 317 322 322 327 328 326 327 330 332
351 353 354 353 354 352 356 358 357 351 348 350 345 336 316 319 319 319 322 324 324 328 330 328 327 327 325 323 322 321 320 318 317 318 317 321 324 326 325 324 326 325 322
356 357 354 353 353 349 355 356 359 354 349 349 348 340 313 312 319 319 325 323 319 328 329 328 327 327 324 323 323 321 320 319 318 318 317 321 324 327 328 328 327 327 329
353 356 354 354 352 350 352 354 357 355 352 348 348 341 317 310 317 320 322 319 318 325 327 328 327 325 323 323 323 322 321 319 318 318 317 325 325 327 327 325 325 324 325
347 350 352 350 349 354 350 352 352 356 354 349 347 347 325 314 315 316 316 318 324 326 325 326 324 324 322 323 322 321 320 318 318 317 317 323 325 326 325 324 324 330 335
346 347 348 347 344 342 347 351 351 351 357 351 348 347 329 312 313 317 314 316 323 326 327 323 322 321 320 322 320 320 319 317 317 317 317 321 325 326 325 326 327 335 334
336 338 339 339 343 339 341 349 352 351 358 355 350 346 331 313 314 314 312 314 320 326 323 323 322 320 320 320 321 319 317 317 316 317 317 319 325 326 325 326 326 336 334
343 340 336 335 335 337 342 345 350 351 358 357 350 346 338 314 313 312 313 317 322 324 323 322 321 320 320 319 320 318 317 316 315 317 317 317 326 327 326 326 326 334 334
349 348 347 347 346 344 344 347 348 350 355 358 351 347 341 316 311 312 315 318 321 323 321 320 320 319 319 318 320 318 316 316 315 316 317 317 322 326 328 325 326 327 333
351 351 350 349 350 348 346 349 348 352 353 355 353 348 339 313 312 314 317 319 319 317 318 319 318 318 318 318 318 318 317 316 315 316 317 317 319 326 327 328 326 326 326
355 357 356 354 353 351 350 349 348 353 352 356 355 348 337 318 313 316 319 320 319 319 317 317 317 318 318 317 318 317 317 316 314 315 316 316 318 325 326 327 325 325 326
359 360 359 358 356 352 350 352 349 350 352 357 354 348 334 327 318 317 320 321 321 321 318 317 317 317 317 317 317 317 316 315 314 314 316 316 319 319 325 327 326 324 323
361 361 360 359 359 355 351 352 349 349 352 356 352 348 335 329 323 314 322 322 323 321 320 317 317 317 317 317 316 316 316 315 315 315 314 315 319 317 327 326 326 326 324
361 359 359 359 358 356 354 355 352 348 351 355 354 346 336 330 321 314 321 324 324 323 322 318 317 317 317 316 316 316 315 315 316 314 315 315 318 319 321 323 326 325 325
Wind_Speed
7 7 6 4 3 5 7 8 7 8 5 6 6 5 4 4 4 6 6 5 3 5 9 7 5 5 3 3 6 8 9 10 12 16 19 20 23 26 23 26 24 23 23
6 4 3 2 4 4 5 7 6 6 5 1 3 5 1 2 3 3 3 2 2 6 6 4 7 8 8 7 6 4 4 6 7 10 13 16 19 27 26 30 29 25 25
3 4 2 5 10 1 2 9 7 4 5 4 3 5 4 4 4 4 1 2 5 1 3 1 2 4 6 8 7 6 6 6 7 10 13 14 16 21 26 28 30 29 29
11 6 5 8 8 2 6 10 4 3 2 4 6 7 7 8 7 6 3 3 2 5 2 2 5 3 4 7 7 8 8 9 11 11 10 13 17 20 27 29 30 28 33
5 4 6 10 8 7 10 10 4 6 6 6 5 2 10 7 8 7 5 5 4 7 4 5 3 4 6 6 8 11 11 14 9 11 14 14 15 17 20 22 26 27 30
2 7 8 9 10 6 10 9 5 5 2 6 5 1 8 8 7 10 7 9 8 7 7 5 3 5 11 8 11 13 17 21 18 11 12 17 16 17 17 20 21 21 26
1 5 8 8 8 5 13 10 4 2 3 5 5 1 9 4 6 9 9 12 10 9 9 7 3 4 8 7 14 17 19 23 21 14 11 13 16 17 17 17 22 23 22
3 2 9 8 7 9 10 9 5 4 7 7 7 4 5 5 4 10 10 13 11 11 13 10 6 4 5 3 6 12 17 22 24 15 12 9 15 13 16 16 19 22 25
2 2 5 9 7 12 10 8 10 10 7 5 7 3 2 0 2 6 13 13 12 13 15 13 9 8 5 4 6 10 16 22 18 15 13 7 10 14 11 13 15 20 24
4 4 4 9 7 13 12 10 10 10 12 8 4 6 3 3 4 4 2 1 8 15 16 16 11 13 7 6 4 14 16 17 17 17 13 7 6 11 9 9 13 16 21
5 8 6 7 6 10 12 12 11 11 12 11 7 5 4 2 3 3 5 9 5 6 16 18 15 13 10 3 10 11 13 14 16 16 11 6 5 5 7 6 10 16 20
7 9 8 6 4 8 11 13 10 12 12 11 9 8 7 5 6 5 6 9 9 7 9 9 15 12 7 7 7 9 12 15 16 16 10 5 3 4 6 7 9 14 19
9 16 12 6 3 6 8 13 10 12 11 10 10 9 8 6 5 5 6 7 4 3 6 6 7 5 5 7 7 8 11 12 14 15 10 5 4 4 4 6 7 12 20
10 13 12 5 4 6 7 10 11 10 11 10 11 10 8 7 5 6 6 6 2 0 6 7 6 2 7 10 6 8 10 12 14 15 10 4 4 5 6 7 9 13 20
7 7 9 7 7 6 7 9 11 10 10 9 10 10 7 6 6 7 7 8 5 3 3 4 4 3 7 7 9 7 8 13 13 12 10 7 4 8 10 12 16 18 19
11 11 10 9 9 9 9 8 10 10 9 10 10 10 8 5 5 5 7 7 3 3 4 3 4 1 5 5 4 5 7 13 13 11 10 10 8 10 12 13 18 25 46
17 13 15 15 15 15 13 11 10 9 10 10 10 9 8 5 5 5 5 3 0 2 1 4 2 2 1 4 2 5 10 13 9 10 10 10 10 12 16 19 25 24 16
22 20 19 20 16 14 14 13 11 10 8 10 10 9 8 6 6 6 6 7 3 5 4 5 5 3 3 3 4 6 9 9 8 10 10 9 12 13 20 21 23 15 20
21 22 23 22 20 17 13 14 12 10 8 9 10 8 7 6 5 7 7 6 4 3 5 2 3 4 9 5 1 5 8 7 7 10 12 10 13 12 19 26 27 30 27
22 21 22 22 19 16 12 12 13 12 11 10 10 8 6 6 5 6 6 6 3 1 0 2 1 7 8 5 1 5 6 9 11 11 12 13 14 17 23 26 38 36 30
20 19 18 18 17 16 15 14 13 14 13 13 10 7 5 4 3 5 7 7 4 2 2 1 3 7 8 5 2 4 6 9 12 13 11 14 14 17 21 28 32 41 42
21 21 21 19 18 17 17 15 14 14 17 16 11 7 3 1 3 5 9 9 8 7 4 2 3 8 9 7 3 3 3 4 11 12 11 19 15 18 23 26 28 35 39
20 21 20 19 19 17 15 18 18 16 18 16 10 8 4 3 2 4 8 9 12 12 10 7 5 7 11 8 5 2 4 7 13 11 12 21 17 21 21 24 24 27 30
17 18 18 18 18 17 14 17 18 17 15 15 11 7 6 4 2 2 5 8 11 13 14 10 8 9 11 8 6 3 10 12 14 12 12 20 19 23 21 22 23 22 24
19 19 18 17 17 16 16 16 17 17 15 15 12 8 8 6 4 3 3 6 9 12 16 14 11 10 11 9 7 4 10 12 15 14 13 18 21 22 24 22 18 19 20
22 20 20 19 19 18 16 17 16 17 17 17 13 10 11 8 7 5 3 3 5 8 13 13 13 10 9 8 7 7 8 11 13 13 12 18 22 24 24 23 23 18 18
Wind_Direction
62 48 20 36 19 30 32 23 30 13 2 328 320 322 354 6 84 110 82 30 343 326 315 12 38 38 21 319 285 275 265 257 246 239 236 232 221 223 238 217 217 216 223
64 60 110 22 357 344 24 3 2 15 8 28 276 267 279 163 88 93 124 194 353 291 357 55 51 48 41 33 20 353 308 269 233 226 224 227 228 227 223 219 220 226 219
15 347 339 37 20 11 342 356 340 21 45 38 210 215 211 208 188 163 217 306 20 351 23 103 326 5 19 7 6 352 335 313 278 244 237 236 233 226 222 223 223 235 222
50 65 31 6 44 79 343 345 340 1 342 336 338 198 211 209 210 210 285 314 350 332 316 7 346 342 355 340 348 4 355 325 286 272 253 248 245 235 230 237 234 233 222
53 22 39 21 17 8 9 1 358 358 49 4 15 278 217 252 218 236 256 317 313 343 317 18 339 346 6 14 352 348 356 2 326 281 261 247 247 243 234 239 233 229 235
37 19 360 15 22 36 2 17 47 65 5 18 52 60 217 237 252 248 273 317 296 318 303 317 11 43 32 48 13 358 351 349 341 323 275 251 241 243 242 238 236 230 217
295 29 4 348 358 16 10 22 41 350 321 13 16 297 197 239 289 255 286 294 293 302 289 284 322 8 30 47 18 1 348 342 345 335 300 257 239 240 245 240 234 226 226
212 17 355 347 352 13 18 30 57 1 353 9 26 87 175 171 326 246 288 278 281 287 282 268 258 291 327 356 358 348 345 341 339 334 320 281 239 245 247 245 234 226 222
192 307 339 353 20 16 20 31 37 31 31 36 35 63 107 114 323 227 254 260 264 278 292 254 251 264 268 279 357 347 342 345 342 332 320 288 254 242 259 244 235 224 219
234 264 291 351 16 14 29 29 31 30 27 48 51 47 46 276 256 241 234 223 285 277 267 241 241 253 263 243 336 341 330 350 342 336 320 294 291 241 259 242 224 214 216
212 225 260 332 19 19 22 33 28 25 26 30 34 29 355 319 307 280 248 319 356 296 228 239 250 240 253 280 332 315 321 359 345 341 336 331 331 263 256 250 226 209 209
223 240 247 304 4 16 21 20 25 29 27 30 29 24 18 26 1 347 339 360 21 6 200 233 218 236 275 319 336 324 349 357 349 350 352 12 359 283 260 243 225 211 206
259 243 247 279 333 350 8 16 18 20 28 31 23 13 1 360 12 6 344 9 41 94 140 162 191 234 311 349 349 340 356 348 357 356 358 20 347 325 272 248 235 225 216
262 233 238 244 264 318 343 355 6 1 17 23 15 6 343 337 337 358 7 359 1 159 183 167 178 259 357 347 345 343 350 348 8 359 2 26 351 322 321 281 272 261 236
199 204 229 231 273 297 321 334 346 0 13 9 17 6 343 327 328 344 351 346 334 169 151 204 235 276 349 344 344 1 344 0 7 357 5 27 1 350 327 292 261 244 245
222 218 232 248 271 289 296 311 332 349 3 2 6 1 354 342 339 345 349 2 25 155 181 174 218 359 2 321 333 336 343 360 9 2 14 29 12 6 339 323 310 268 247
228 231 240 258 279 279 282 288 309 332 352 360 353 358 347 348 346 1 358 355 8 100 47 161 186 118 322 295 323 349 343 355 7 16 25 39 20 36 10 350 335 305 181
233 241 248 259 268 280 269 277 298 308 323 350 346 355 354 347 2 22 10 4 310 264 262 172 144 116 86 63 27 337 349 22 13 34 33 48 45 46 40 26 356 175 150
235 238 248 257 265 272 259 268 286 294 285 331 340 347 353 348 1 12 5 1 353 173 183 237 134 104 106 96 1 352 4 34 33 41 43 60 57 69 54 46 36 147 146
242 243 249 257 260 257 258 263 274 283 285 303 331 331 348 342 8 14 14 8 38 89 163 308 220 139 123 112 99 27 49 60 53 58 44 59 55 71 67 59 52 123 144
242 243 245 251 253 254 252 256 270 277 285 293 309 312 332 332 22 33 44 54 54 5 333 3 159 144 123 124 132 57 71 70 66 59 61 68 60 65 77 67 67 73 117
247 251 250 252 256 257 253 251 261 266 280 285 290 290 295 304 65 78 66 79 70 52 56 77 133 154 136 127 123 86 61 87 81 69 77 78 80 77 82 68 76 77 82
254 255 256 253 251 252 249 247 249 258 277 270 275 270 242 199 123 85 76 82 73 62 57 73 88 113 123 125 118 115 116 117 99 91 99 87 92 91 83 87 82 85 89
261 261 260 257 255 250 248 244 245 252 261 253 264 256 236 206 166 120 86 81 76 57 51 58 88 112 114 112 105 97 132 127 106 101 109 92 104 100 100 99 100 97 96
263 264 264 260 259 256 250 247 243 244 249 253 257 241 220 225 217 204 108 79 82 63 49 52 93 114 114 116 107 100 144 141 118 108 109 112 113 116 111 109 111 109 107
262 263 263 261 259 258 253 255 246 244 245 248 247 228 218 224 217 204 163 133 91 66 52 50 86 115 121 119 114 107 145 159 137 121 132 126 132 120 119 117 125 130 123